VINASAT-2

Last updated on Wed Sep 17 2025 00:02:47 GMT+0000 (Coordinated Universal Time)

1 38332U 12023B 25259.53945713 -.00000348 00000+0 00000+0 0 9991 2 38332 0.0338 317.5099 0002054 222.3776 141.9003 1.00271446 43919
UTC large
Height (km)
Speed (km/s)
/
Latitude / Longitude
Inclination (degrees)
Orbital Period (minutes)
Azimuth
Elevation
Range (km)
Doppler Factor

Next 0 passes for location: London (51.5072 / 0.1276)

Sorry there are no passes over London.